| time (UTC) | temp F | wind direction | speed MPH | gust MPH | rain 1hr in | rain 24hr in | rain mn in | humidity % | barometer mb |
| 20260509055447 | 46 | 358 | 0.0 | 0.0 | 0.00 | 0.00 | 0.00 | 55 | 1008.1 |
| 20260509054807 | 0 | 357 | 0.0 | 0.0 | 0.00 | 0.00 | 0.00 | ||
| 20260509053906 | 0 | 359 | 0.0 | 0.0 | 0.00 | 0.00 | 0.00 | ||
| 20260509053009 | 45 | 358 | 0.0 | 0.0 | 0.00 | 0.00 | 0.00 | 55 | 1008.4 |
| 20260509052328 | 46 | 357 | 0.0 | 0.0 | 0.00 | 0.00 | 0.00 | 56 | 1008.4 |
| 20260509051648 | 45 | 356 | 0.0 | 0.0 | 0.00 | 0.00 | 0.00 | 54 | 1008.5 |
| 20260509051008 | 45 | 357 | 0.0 | 5.0 | 0.00 | 0.00 | 0.00 | 55 | 1008.5 |
| 20260509050329 | 0 | 357 | 0.0 | 6.0 | 0.00 | 0.00 | 0.00 | ||
| 20260509045542 | 0 | 357 | 1.0 | 8.0 | 0.00 | 0.00 | 0.00 | ||
| 20260509044642 | 46 | 358 | 4.0 | 7.0 | 0.00 | 0.00 | 0.00 | 52 | 1008.7 |
| 20260509044002 | 0 | 357 | 2.0 | 4.0 | 0.00 | 0.00 | 0.00 | ||
| 20260509043211 | 46 | 357 | 5.0 | 9.0 | 0.00 | 0.00 | 0.00 | 52 | 1008.7 |
| 20260509042532 | 0 | 354 | 6.0 | 5.0 | 0.00 | 0.00 | 0.00 | ||
| 20260509041632 | 46 | 358 | 1.0 | 6.0 | 0.00 | 0.00 | 0.00 | 54 | 1008.9 |
| 20260509040952 | 0 | 356 | 1.0 | 5.0 | 0.00 | 0.00 | 0.00 | ||
| 20260509040201 | 45 | 357 | 1.0 | 4.0 | 0.00 | 0.00 | 0.00 | 54 | 1009.1 |
| 20260509035521 | 45 | 358 | 0.0 | 6.0 | 0.00 | 0.00 | 0.00 | 54 | 1009.1 |
| 20260509034841 | 0 | 357 | 2.0 | 7.0 | 0.00 | 0.00 | 0.00 | ||
| 20260509034052 | 46 | 356 | 2.0 | 6.0 | 0.00 | 0.00 | 0.00 | 52 | 1009.3 |
| 20260509033412 | 46 | 357 | 1.0 | 6.0 | 0.00 | 0.00 | 0.00 | 51 | 1009.4 |
| 20260509032732 | 46 | 356 | 2.0 | 6.0 | 0.00 | 0.00 | 0.00 | 51 | 1009.4 |
| 20260509032054 | 0 | 356 | 0.0 | 6.0 | 0.00 | 0.00 | 0.00 | ||
| 20260509031302 | 46 | 357 | 0.0 | 0.0 | 0.00 | 0.00 | 0.00 | 52 | 1009.6 |
| 20260509025829 | 46 | 358 | 0.0 | 0.0 | 0.00 | 0.00 | 0.08 | 51 | 1009.7 |
| 20260509025151 | 47 | 358 | 0.0 | 3.0 | 0.00 | 0.00 | 0.08 | 51 | 1009.7 |
| 20260509024510 | 47 | 357 | 0.0 | 6.0 | 0.00 | 0.00 | 0.08 | 50 | 1009.7 |
| 20260509023830 | 48 | 358 | 0.0 | 5.0 | 0.00 | 0.00 | 0.08 | 53 | 1009.7 |
| 20260509022821 | 48 | 356 | 0.0 | 4.0 | 0.00 | 0.00 | 0.08 | 45 | 1009.7 |
| 20260509022141 | 49 | 357 | 0.0 | 0.0 | 0.00 | 0.00 | 0.08 | 44 | 1009.6 |
| 20260509021501 | 49 | 358 | 0.0 | 0.0 | 0.00 | 0.00 | 0.08 | 42 | 1009.6 |
| 20260509020820 | 49 | 357 | 0.0 | 0.0 | 0.00 | 0.00 | 0.08 | 41 | 1009.6 |
| 20260509020143 | 0 | 357 | 0.0 | 0.0 | 0.00 | 0.00 | 0.08 | ||
| 20260509015318 | 50 | 360 | 0.0 | 0.0 | 0.00 | 0.00 | 0.08 | 40 | 1009.5 |
| 20260509014637 | 50 | 358 | 0.0 | 0.0 | 0.00 | 0.00 | 0.08 | 39 | 1009.4 |
| 20260509013957 | 50 | 358 | 0.0 | 0.0 | 0.00 | 0.00 | 0.08 | 37 | 1009.3 |
| 20260509013317 | 51 | 359 | 0.0 | 0.0 | 0.00 | 0.00 | 0.08 | 37 | 1009.3 |
| 20260509012638 | 51 | 358 | 0.0 | 0.0 | 0.00 | 0.00 | 0.08 | 38 | 1009.3 |
| 20260509011957 | 51 | 357 | 0.0 | 0.0 | 0.00 | 0.00 | 0.08 | 38 | 1009.2 |
| 20260509011318 | 0 | 358 | 0.0 | 0.0 | 0.00 | 0.00 | 0.08 | ||
| 20260509010302 | 0 | 357 | 0.0 | 0.0 | 0.00 | 0.00 | 0.08 | ||
| 20260509005511 | 0 | 358 | 0.0 | 0.0 | 0.00 | 0.00 | 0.08 | ||
| 20260509004721 | 0 | 358 | 0.0 | 0.0 | 0.00 | 0.00 | 0.08 | ||
| 20260509003931 | 0 | 358 | 0.0 | 0.0 | 0.00 | 0.00 | 0.08 | ||
| 20260509003029 | 52 | 358 | 0.0 | 0.0 | 0.00 | 0.00 | 0.08 | 42 | 1009.1 |
| 20260509002348 | 52 | 356 | 0.0 | 0.0 | 0.00 | 0.00 | 0.08 | 42 | 1009.0 |
| 20260509001709 | 52 | 358 | 0.0 | 0.0 | 0.00 | 0.00 | 0.08 | 39 | 1008.9 |
| 20260509001028 | 53 | 357 | 0.0 | 0.0 | 0.00 | 0.00 | 0.08 | 36 | 1009.0 |
| 20260509000348 | 53 | 357 | 0.0 | 0.0 | 0.00 | 0.00 | 0.08 | 33 | 1008.9 |
| 20260508235708 | 52 | 356 | 0.0 | 0.0 | 0.00 | 0.00 | 0.08 | 33 | 1008.9 |
| 20260508235028 | 53 | 358 | 0.0 | 0.0 | 0.00 | 0.00 | 0.08 | 33 | 1008.9 |
| 20260508234348 | 53 | 358 | 0.0 | 0.0 | 0.00 | 0.00 | 0.08 | 32 | 1008.8 |
| 20260508233709 | 0 | 357 | 0.0 | 0.0 | 0.00 | 0.00 | 0.08 | ||
| 20260508232919 | 53 | 356 | 0.0 | 0.0 | 0.00 | 0.00 | 0.08 | 30 | 1008.9 |
| 20260508232239 | 53 | 357 | 0.0 | 0.0 | 0.00 | 0.00 | 0.08 | 29 | 1008.9 |
| 20260508231600 | 54 | 359 | 0.0 | 0.0 | 0.00 | 0.00 | 0.08 | 34 | 1008.9 |
| 20260508230654 | 54 | 359 | 1.0 | 5.0 | 0.00 | 0.00 | 0.08 | 32 | 1008.9 |
| 20260508230015 | 0 | 357 | 0.0 | 5.0 | 0.00 | 0.00 | 0.08 | ||
| 20260508225224 | 54 | 357 | 0.0 | 0.0 | 0.00 | 0.00 | 0.08 | 33 | 1008.9 |
| 20260508224543 | 54 | 357 | 0.0 | 4.0 | 0.00 | 0.00 | 0.08 | 37 | 1008.9 |
| 20260508223904 | 54 | 358 | 1.0 | 4.0 | 0.00 | 0.00 | 0.08 | 38 | 1009.0 |
| 20260508223226 | 0 | 357 | 0.0 | 0.0 | 0.00 | 0.00 | 0.08 | ||
| 20260508222250 | 54 | 358 | 0.0 | 0.0 | 0.00 | 0.00 | 0.08 | 34 | 1009.1 |
| 20260508221610 | 56 | 357 | 0.0 | 0.0 | 0.00 | 0.00 | 0.08 | 37 | 1009.0 |
| 20260508220930 | 55 | 358 | 0.0 | 0.0 | 0.00 | 0.00 | 0.08 | 36 | 1009.1 |
| 20260508220251 | 0 | 358 | 0.0 | 6.0 | 0.00 | 0.00 | 0.08 | ||
| 20260508215502 | 55 | 357 | 1.0 | 6.0 | 0.00 | 0.00 | 0.08 | 34 | 1009.1 |
| 20260508214824 | 0 | 356 | 4.0 | 4.0 | 0.00 | 0.00 | 0.08 | ||
| 20260508214034 | 0 | 358 | 4.0 | 8.0 | 0.00 | 0.00 | 0.08 | ||
| 20260508213245 | 54 | 356 | 5.0 | 8.0 | 0.00 | 0.00 | 0.08 | 36 | 1009.1 |
| 20260508212605 | 0 | 357 | 4.0 | 5.0 | 0.00 | 0.00 | 0.08 | ||
| 20260508211816 | 0 | 357 | 4.0 | 5.0 | 0.00 | 0.00 | 0.08 | ||
| 20260508210808 | 53 | 356 | 5.0 | 9.0 | 0.00 | 0.00 | 0.08 | 35 | 1009.1 |
| 20260508210122 | 54 | 357 | 5.0 | 8.0 | 0.00 | 0.00 | 0.08 | 34 | 1009.2 |
| 20260508205442 | 0 | 356 | 6.0 | 8.0 | 0.00 | 0.00 | 0.08 | ||
| 20260508204654 | 0 | 359 | 1.0 | 5.0 | 0.00 | 0.00 | 0.08 | ||
| 20260508203530 | 0 | 356 | 0.0 | 0.0 | 0.00 | 0.00 | 0.08 | ||
| 20260508202629 | 0 | 357 | 0.0 | 0.0 | 0.00 | 0.00 | 0.08 | ||
| 20260508201835 | 0 | 358 | 0.0 | 0.0 | 0.00 | 0.00 | 0.08 | ||
| 20260508200935 | 0 | 359 | 0.0 | 5.0 | 0.00 | 0.00 | 0.08 | ||
| 20260508200144 | 52 | 357 | 1.0 | 6.0 | 0.00 | 0.00 | 0.08 | 52 | 1010.0 |
| 20260508195504 | 53 | 354 | 3.0 | 6.0 | 0.00 | 0.00 | 0.08 | 52 | 1010.0 |
| 20260508194824 | 53 | 358 | 4.0 | 6.0 | 0.00 | 0.00 | 0.08 | 46 | 1010.2 |
| 20260508194145 | 0 | 358 | 3.0 | 7.0 | 0.00 | 0.00 | 0.08 | ||
| 20260508193354 | 53 | 357 | 4.0 | 6.0 | 0.00 | 0.00 | 0.08 | 52 | 1010.3 |
| 20260508192715 | 0 | 356 | 5.0 | 3.0 | 0.00 | 0.00 | 0.08 | ||
| 20260508191924 | 54 | 354 | 4.0 | 7.0 | 0.00 | 0.00 | 0.08 | 49 | 1010.6 |
| 20260508191243 | 54 | 356 | 5.0 | 8.0 | 0.00 | 0.00 | 0.08 | 46 | 1010.7 |
| 20260508190604 | 54 | 355 | 5.0 | 8.0 | 0.00 | 0.00 | 0.08 | 47 | 1010.7 |
| 20260508185924 | 0 | 356 | 5.0 | 2.0 | 0.00 | 0.00 | 0.08 | ||
| 20260508185132 | 54 | 356 | 5.0 | 8.0 | 0.00 | 0.00 | 0.08 | 45 | 1010.8 |
| 20260508184453 | 52 | 357 | 5.0 | 8.0 | 0.00 | 0.00 | 0.08 | 50 | 1010.9 |
| 20260508183813 | 0 | 357 | 5.0 | 6.0 | 0.00 | 0.00 | 0.08 | ||
| 20260508183021 | 52 | 355 | 6.0 | 8.0 | 0.00 | 0.00 | 0.08 | 52 | 1011.0 |
| 20260508182347 | 52 | 356 | 5.0 | 8.0 | 0.00 | 0.00 | 0.08 | 53 | 1011.0 |
| 20260508181704 | 0 | 358 | 0.0 | 3.0 | 0.00 | 0.00 | 0.08 | ||
| 20260508180914 | 0 | 357 | 0.0 | 4.0 | 0.00 | 0.00 | 0.08 | ||
| 20260508180121 | 52 | 359 | 0.0 | 0.0 | 0.00 | 0.00 | 0.08 | 50 | 1011.2 |
| 20260508175441 | 52 | 358 | 0.0 | 7.0 | 0.00 | 0.00 | 0.08 | 46 | 1011.3 |
| 20260508174801 | 52 | 358 | 0.0 | 4.0 | 0.00 | 0.00 | 0.08 | 50 | 1011.3 |
| 20260508174121 | 0 | 358 | 0.0 | 4.0 | 0.00 | 0.00 | 0.08 | ||
| 20260508173222 | 51 | 357 | 0.0 | 0.0 | 0.00 | 0.00 | 0.08 | 47 | 1011.4 |
| 20260508172543 | 51 | 358 | 0.0 | 0.0 | 0.00 | 0.00 | 0.08 | 48 | 1011.5 |
| 20260508171905 | 0 | 357 | 0.0 | 7.0 | 0.00 | 0.00 | 0.08 | ||
| 20260508171114 | 0 | 356 | 0.0 | 5.0 | 0.00 | 0.00 | 0.08 | ||
| 20260508170323 | 0 | 357 | 0.0 | 6.0 | 0.00 | 0.00 | 0.08 | ||
| 20260508165536 | 0 | 357 | 0.0 | 4.0 | 0.00 | 0.00 | 0.08 | ||
| 20260508164748 | 0 | 359 | 0.0 | 3.0 | 0.00 | 0.00 | 0.08 | ||
| 20260508163955 | 51 | 357 | 0.0 | 4.0 | 0.00 | 0.00 | 0.07 | 51 | 1011.7 |
| 20260508163314 | 51 | 358 | 0.0 | 4.0 | 0.00 | 0.00 | 0.07 | 52 | 1011.8 |
| 20260508162634 | 50 | 358 | 0.0 | 4.0 | 0.00 | 0.00 | 0.07 | 53 | 1011.9 |
| 20260508162000 | 51 | 357 | 0.0 | 4.0 | 0.00 | 0.00 | 0.07 | 55 | 1011.9 |
| 20260508161315 | 0 | 358 | 0.0 | 7.0 | 0.00 | 0.00 | 0.07 | ||
| 20260508160524 | 50 | 358 | 1.0 | 6.0 | 0.00 | 0.00 | 0.07 | 53 | 1012.0 |
| 20260508155844 | 0 | 354 | 1.0 | 6.0 | 0.00 | 0.00 | 0.07 | ||
| 20260508154941 | 50 | 356 | 0.0 | 6.0 | 0.00 | 0.00 | 0.07 | 55 | 1012.0 |
| 20260508154302 | 0 | 356 | 2.0 | 5.0 | 0.00 | 0.00 | 0.07 | ||
| 20260508153513 | 0 | 359 | 0.0 | 5.0 | 0.00 | 0.00 | 0.07 | ||
| 20260508152726 | 0 | 358 | 0.0 | 4.0 | 0.00 | 0.00 | 0.07 | ||
| 20260508151821 | 50 | 356 | 0.0 | 4.0 | 0.00 | 0.00 | 0.07 | 58 | 1012.2 |
| 20260508151141 | 49 | 356 | 0.0 | 4.0 | 0.00 | 0.00 | 0.07 | 59 | 1012.2 |
| 20260508150501 | 50 | 358 | 0.0 | 4.0 | 0.00 | 0.00 | 0.07 | 56 | 1012.2 |
| 20260508145821 | 50 | 357 | 0.0 | 4.0 | 0.00 | 0.00 | 0.07 | 59 | 1012.1 |
| 20260508145140 | 49 | 356 | 0.0 | 4.0 | 0.00 | 0.00 | 0.07 | 63 | 1012.2 |
| 20260508144502 | 49 | 357 | 0.0 | 0.0 | 0.00 | 0.00 | 0.07 | 61 | 1012.1 |
| 20260508143821 | 0 | 359 | 0.0 | 0.0 | 0.00 | 0.00 | 0.07 | ||
| 20260508143029 | 48 | 358 | 0.0 | 0.0 | 0.00 | 0.00 | 0.07 | 62 | 1012.1 |
| 20260508142349 | 48 | 357 | 0.0 | 0.0 | 0.00 | 0.00 | 0.07 | 64 | 1011.9 |
| 20260508141711 | 0 | 357 | 0.0 | 0.0 | 0.00 | 0.00 | 0.07 | ||
| 20260508140923 | 46 | 356 | 0.0 | 0.0 | 0.00 | 0.00 | 0.07 | 69 | 1011.9 |
| 20260508140242 | 48 | 359 | 0.0 | 0.0 | 0.00 | 0.00 | 0.07 | 66 | 1011.9 |
| 20260508135603 | 0 | 360 | 0.0 | 0.0 | 0.00 | 0.00 | 0.07 | ||
| 20260508134812 | 46 | 358 | 0.0 | 0.0 | 0.00 | 0.00 | 0.07 | 67 | 1011.9 |
| 20260508134132 | 45 | 358 | 0.0 | 0.0 | 0.00 | 0.00 | 0.07 | 71 | 1011.9 |
| 20260508133451 | 45 | 359 | 0.0 | 0.0 | 0.00 | 0.00 | 0.07 | 69 | 1011.9 |
| 20260508132811 | 44 | 359 | 0.0 | 0.0 | 0.00 | 0.00 | 0.07 | 71 | 1011.9 |
| 20260508132132 | 0 | 358 | 0.0 | 0.0 | 0.00 | 0.00 | 0.07 | ||
| 20260508131124 | 43 | 359 | 0.0 | 0.0 | 0.00 | 0.00 | 0.07 | 72 | 1011.8 |
| 20260508130444 | 0 | 358 | 0.0 | 0.0 | 0.00 | 0.00 | 0.07 | ||
| 20260508125437 | 42 | 357 | 0.0 | 0.0 | 0.00 | 0.00 | 0.07 | 71 | 1011.9 |
| 20260508124755 | 42 | 357 | 0.0 | 0.0 | 0.00 | 0.00 | 0.07 | 75 | 1012.0 |
| 20260508124116 | 0 | 357 | 0.0 | 0.0 | 0.00 | 0.00 | 0.07 | ||
| 20260508123325 | 42 | 357 | 0.0 | 0.0 | 0.00 | 0.00 | 0.07 | 76 | 1011.9 |
| 20260508122646 | 0 | 358 | 0.0 | 0.0 | 0.00 | 0.00 | 0.07 | ||
| 20260508121858 | 42 | 359 | 0.0 | 0.0 | 0.00 | 0.00 | 0.07 | 77 | 1011.9 |
| 20260508121218 | 0 | 357 | 0.0 | 0.0 | 0.00 | 0.00 | 0.07 | ||
| 20260508120429 | 42 | 358 | 0.0 | 0.0 | 0.00 | 0.00 | 0.07 | 77 | 1011.9 |
| 20260508115748 | 42 | 357 | 0.0 | 0.0 | 0.00 | 0.00 | 0.07 | 78 | 1011.7 |
| 20260508115108 | 42 | 358 | 0.0 | 0.0 | 0.00 | 0.00 | 0.07 | 76 | 1011.8 |
| 20260508114429 | 42 | 358 | 0.0 | 7.0 | 0.00 | 0.00 | 0.07 | 76 | 1011.8 |
| 20260508113749 | 42 | 358 | 1.0 | 10.0 | 0.00 | 0.00 | 0.07 | 73 | 1011.8 |
| 20260508113109 | 42 | 358 | 2.0 | 9.0 | 0.00 | 0.00 | 0.06 | 76 | 1011.8 |
| 20260508112430 | 0 | 357 | 2.0 | 5.0 | 0.00 | 0.00 | 0.05 | ||
| 20260508111639 | 43 | 358 | 0.0 | 4.0 | 0.00 | 0.00 | 0.03 | 74 | 1011.5 |
| 20260508110958 | 43 | 358 | 0.0 | 0.0 | 0.00 | 0.00 | 0.03 | 74 | 1011.3 |
| 20260508110320 | 43 | 357 | 0.0 | 0.0 | 0.00 | 0.00 | 0.03 | 73 | 1010.9 |
| 20260508105638 | 43 | 358 | 0.0 | 0.0 | 0.00 | 0.00 | 0.03 | 72 | 1010.9 |
| 20260508104958 | 43 | 358 | 0.0 | 6.0 | 0.00 | 0.00 | 0.03 | 74 | 1011.0 |
| 20260508104319 | 0 | 358 | 1.0 | 6.0 | 0.00 | 0.00 | 0.03 | ||
| 20260508103414 | 43 | 357 | 0.0 | 3.0 | 0.00 | 0.00 | 0.03 | 68 | 1010.8 |
| 20260508102734 | 44 | 358 | 0.0 | 0.0 | 0.00 | 0.00 | 0.03 | 73 | 1010.9 |
| 20260508102054 | 44 | 358 | 0.0 | 7.0 | 0.00 | 0.00 | 0.02 | 69 | 1010.7 |
| 20260508101415 | 45 | 358 | 0.0 | 5.0 | 0.00 | 0.00 | 0.01 | 66 | 1010.8 |
| 20260508100734 | 44 | 357 | 0.0 | 5.0 | 0.00 | 0.00 | 0.01 | 69 | 1010.5 |
| 20260508100054 | 44 | 359 | 0.0 | 5.0 | 0.00 | 0.00 | 0.01 | 69 | 1010.4 |
| 20260508095414 | 44 | 359 | 0.0 | 6.0 | 0.00 | 0.00 | 0.01 | 66 | 1010.5 |
| 20260508094739 | 44 | 358 | 1.0 | 6.0 | 0.00 | 0.00 | 0.01 | 64 | 1010.4 |
| 20260508094054 | 44 | 358 | 0.0 | 0.0 | 0.00 | 0.00 | 0.01 | 64 | 1010.2 |
| 20260508093414 | 0 | 356 | 0.0 | 6.0 | 0.00 | 0.00 | 0.01 | ||
| 20260508092626 | 0 | 358 | 3.0 | 2.0 | 0.00 | 0.00 | 0.01 | ||
| 20260508091722 | 45 | 358 | 0.0 | 6.0 | 0.00 | 0.00 | 0.00 | 65 | 1010.4 |
| 20260508091041 | 46 | 357 | 2.0 | 6.0 | 0.00 | 0.00 | 0.00 | 62 | 1010.7 |
| 20260508090402 | 46 | 358 | 3.0 | 6.0 | 0.00 | 0.00 | 0.00 | 61 | 1010.7 |
| 20260508085722 | 0 | 356 | 5.0 | 4.0 | 0.00 | 0.00 | 0.00 | ||
| 20260508084824 | 46 | 357 | 1.0 | 5.0 | 0.00 | 0.00 | 0.00 | 60 | 1010.5 |
| 20260508084144 | 46 | 357 | 1.0 | 7.0 | 0.00 | 0.00 | 0.00 | 60 | 1010.6 |
| 20260508083504 | 0 | 358 | 4.0 | 5.0 | 0.00 | 0.00 | 0.00 | ||
| 20260508082712 | 45 | 357 | 2.0 | 8.0 | 0.00 | 0.00 | 0.00 | 60 | 1010.7 |
| 20260508082033 | 0 | 356 | 5.0 | 4.0 | 0.00 | 0.00 | 0.00 | ||
| 20260508081240 | 45 | 359 | 5.0 | 8.0 | 0.00 | 0.00 | 0.00 | 60 | 1010.8 |
| 20260508080600 | 45 | 357 | 5.0 | 9.0 | 0.00 | 0.00 | 0.00 | 61 | 1010.9 |
| 20260508075919 | 45 | 358 | 5.0 | 10.0 | 0.00 | 0.00 | 0.00 | 63 | 1010.9 |
| 20260508075240 | 45 | 357 | 4.0 | 7.0 | 0.00 | 0.00 | 0.00 | 59 | 1011.0 |
| 20260508074451 | 45 | 356 | 7.0 | 16.0 | 0.00 | 0.00 | 0.00 | 60 | 1011.0 |
| 20260508073811 | 45 | 356 | 10.0 | 16.0 | 0.00 | 0.00 | 0.00 | 57 | 1011.1 |
| 20260508073131 | 45 | 356 | 6.0 | 11.0 | 0.00 | 0.00 | 0.00 | 69 | 1011.0 |
| 20260508072451 | 44 | 358 | 6.0 | 10.0 | 0.00 | 0.00 | 0.00 | 71 | 1011.0 |
| 20260508071812 | 0 | 357 | 6.0 | 7.0 | 0.00 | 0.00 | 0.00 | ||
| 20260508070909 | 0 | 356 | 5.0 | 4.0 | 0.00 | 0.00 | 0.00 | ||
| 20260508070125 | 43 | 357 | 2.0 | 4.0 | 0.00 | 0.00 | 0.00 | 76 | 1010.8 |
| 20260508065440 | 43 | 358 | 0.0 | 5.0 | 0.00 | 0.00 | 0.00 | 76 | 1010.7 |
| 20260508064801 | 43 | 357 | 3.0 | 7.0 | 0.00 | 0.00 | 0.00 | 76 | 1010.7 |
| 20260508064121 | 43 | 357 | 5.0 | 8.0 | 0.00 | 0.00 | 0.00 | 75 | 1010.9 |
| 20260508063440 | 43 | 357 | 5.0 | 9.0 | 0.00 | 0.00 | 0.00 | 76 | 1011.0 |
| 20260508062800 | 43 | 355 | 6.0 | 9.0 | 0.00 | 0.00 | 0.00 | 76 | 1010.9 |
| 20260508062120 | 43 | 357 | 4.0 | 5.0 | 0.00 | 0.00 | 0.00 | 77 | 1011.0 |
| 20260508061331 | 43 | 359 | 0.0 | 0.0 | 0.00 | 0.00 | 0.00 | 78 | 1011.1 |
| 20260508060650 | 43 | 356 | 0.0 | 4.0 | 0.00 | 0.00 | 0.00 | 77 | 1010.9 |
| 20260508060009 | 43 | 357 | 1.0 | 5.0 | 0.00 | 0.00 | 0.00 | 78 | 1011.0 |